SB KEPS @ AMSAT $ORB09127.N 2Line Orbital Elements 09127.AMSAT
HR AMSAT ORBITAL ELEMENTS FOR AMATEUR SATELLITES IN NASA FORMAT FROM WA5QGD FORT WORTH,TX May 7, 2009 Send Subscribe/unsubscribe to KEPS at http://www.amsat.org/mailman/listinfo/keps BID: ORB09127.N
DECODE 2-LINE ELSETS WITH THE FOLLOWING KEY: 1 AAAAAU 00 0 0 BBBBB.BBBBBBBB .CCCCCCCC 00000-0 00000-0 0 DDDZ 2 AAAAA EEE.EEEE FFF.FFFF GGGGGGG HHH.HHHH III.IIII JJ.JJJJJJJJKKKKKZ KEY: A-CATALOGNUM B-EPOCHTIME C-DECAY D-ELSETNUM E-INCLINATION F-RAAN G-ECCENTRICITY H-ARGPERIGEE I-MNANOM J-MNMOTION K-ORBITNUM Z-CHECKSUM
TO ALL RADIO AMATEURS BT
AO-07 1 07530U 74089B 09127.38749830 -.00000027 00000-0 10000-3 0 4713 2 07530 101.4300 153.5596 0011780 350.5700 009.5150 12.53575649577609 FO-29 1 24278U 96046B 09126.81230492 -.00000089 00000-0 -57249-4 0 00413 2 24278 098.5601 006.4009 0351408 097.5823 266.5363 13.52942732628159 SO-33 1 25509U 98061B 09127.79496219 .00000022 00000-0 -74304-5 0 4488 2 25509 031.4346 280.8900 0354681 345.2337 013.8120 14.28249954550053 RS-22 1 27939U 03042A 09126.82935337 -.00000010 00000-0 68964-5 0 7838 2 27939 097.9511 003.1921 0012434 263.2923 096.6894 14.63312512299528 VO-52 1 28650U 05017B 09126.71708446 -.00000250 00000-0 -25034-4 0 02203 2 28650 097.7456 189.6637 0027582 162.5612 197.6558 14.81577692216503 AO-16 1 20439U 90005D 09126.83430782 .00000006 00000-0 17777-4 0 5989 2 20439 098.2758 097.1255 0010127 297.5630 062.4538 14.31822964 7231 LO-19 1 20442U 90005G 09126.47884002 -.00000054 00000-0 -50134-5 0 05183 2 20442 098.2375 104.2101 0010860 293.1419 066.8626 14.32058542007343 AO-27 1 22825U 93061C 09127.61211878 .00000056 00000-0 38725-4 0 2387 2 22825 098.4328 082.3196 0008791 030.9293 329.2418 14.29264958814119 IO-26 1 22826U 93061D 09126.62954793 .00000007 00000-0 19076-4 0 9626 2 22826 098.4264 082.1346 0009409 028.5576 331.6114 14.29516219814073 GO-32 1 25397U 98043D 09126.59184599 .00000058 00000-0 43663-4 0 08884 2 25397 098.3289 151.1561 0001677 053.4029 306.7309 14.23158420562215 NO-44 1 26931U 01043C 09127.56618435 -.00000102 00000-0 -76054-5 0 1620 2 26931 067.0514 168.9946 0005362 268.7775 091.2713 14.29554385396778 SO-50 1 27607U 02058C 09127.61323234 -.00000002 00000-0 21806-4 0 8791 2 27607 064.5570 148.3185 0072105 214.4916 145.1506 14.71433169342700 CO-55 1 27844U 03031E 09127.49457375 .00000036 00000-0 36855-4 0 5733 2 27844 098.7146 137.2367 0008791 260.4428 099.5773 14.20635285303486 CO-57 1 27848U 03031J 09126.55070982 .00000037 00000-0 37824-4 0 05208 2 27848 098.7157 135.3660 0008913 270.1663 089.8507 14.20437785303316 AO-51 1 28375U 04025K 09127.54196770 .00000005 00000-0 14325-4 0 3824 2 28375 098.0541 139.5152 0082923 248.8730 110.3584 14.40640558255108 CO-56 1 28941U 06005C 09127.48727532 .00034446 30684-5 13801-3 0 569 2 28941 098.1344 294.4461 0095721 284.8835 074.1864 15.79901969180811 GENESAT1 1 29655U 06058C 09126.96834257 .00009891 00000-0 10168-3 0 07026 2 29655 040.0244 081.4304 0001504 244.8582 115.2144 15.64717605136017 CP3 1 31129U 07012N 09127.79410475 .00000019 00000-0 14967-4 0 9050 2 31129 097.9931 182.7995 0103668 050.8505 310.1838 14.52126845109028 CO-65 1 32785U 08021C 09127.66797517 .00000009 00000-0 80176-5 0 3588 2 32785 097.9469 191.9624 0015281 158.6808 201.5043 14.81475444 55441 KKS-1 1 33493U 09002B 09127.75518221 .00000242 00000-0 38464-4 0 3590 2 33493 098.0529 239.7965 0020483 016.5004 343.6878 14.80659333 15480 SOHLA-1 1 33496U 09002E 09127.73438770 .00000008 00000-0 95685-5 0 3220 2 33496 098.0342 237.6815 0007818 057.0356 303.1608 14.69431829 15335 NOAA-10 1 16969U 86073A 09126.58910385 -.00000019 00000-0 10429-4 0 06035 2 16969 098.6941 153.4582 0011815 322.1948 037.8385 14.27385432177573 NOAA-11 1 19531U 88089A 09126.76767840 -.00000278 00000-0 -12144-3 0 06121 2 19531 098.7829 217.3599 0011086 223.3105 136.7202 14.14893759063665 NOAA-12 1 21263U 91032A 09127.82023306 .00000082 00000-0 34553-4 0 1088 2 21263 098.7715 135.8631 0011369 262.8412 097.1956 14.25577310934687 MET-3/5 1 21655U 91056A 09126.97395975 .00000051 00000-0 10000-3 0 05965 2 21655 082.5485 235.6006 0012582 287.4341 072.5405 13.17018674852200 MET-2/21 1 22782U 93055A 09126.74328370 -.00000036 00000-0 -46160-4 0 04510 2 22782 082.5495 214.8765 0024052 102.3790 258.0069 13.83636589791878 OKEAN-4 1 23317U 94066A 09126.86560058 .00000140 00000-0 14290-4 0 9004 2 23317 082.5420 013.0510 0023150 137.3503 222.9502 14.82693014786249 NOAA-14 1 23455U 94089A 09127.75951992 -.00000015 00000-0 00000 0 0 6088 2 23455 098.9102 205.5755 0008685 309.1524 050.9358 14.13761981740305 NOAA-15 1 25338U 98030A 09126.82967476 -.00000048 00000-0 -21197-5 0 09166 2 25338 098.5825 116.9488 0010907 172.6547 187.4750 14.24756762570880 RESURS 1 25394U 98043A 09126.70921083 -.00000043 00000-0 -91287-6 0 02181 2 25394 098.3464 161.1647 0001762 009.5589 350.5620 14.24181878562498 FENGYUN1 1 25730U 99025A 09126.92233437 -.00000410 00000-0 -21546-3 0 07999 2 25730 098.7537 098.3238 0022142 340.4657 019.5663 14.07958594514519 OKEAN-0 1 25860U 99039A 09127.76897581 .00000042 00000-0 13665-4 0 6708 2 25860 097.7834 110.5628 0001012 042.5563 317.5723 14.73571118527193 NOAA-16 1 26536U 00055A 09126.78333732 .00000061 00000-0 58321-4 0 03923 2 26536 099.1761 129.4493 0011138 042.2095 317.9946 14.12516280444455 NOAA-17 1 27453U 02032A 09126.68678004 .00000154 00000-0 85268-4 0 04027 2 27453 098.4878 187.1798 0010793 241.7599 118.2486 14.24060977356841 NOAA-18 1 28654U 05018A 09126.71356457 -.00000159 00000-0 -63366-4 0 08898 2 28654 098.9043 070.2787 0015268 118.1881 242.0837 14.11253356204105 NOAA-19 1 33591U 09005A 09126.68464308 .00000356 00000-0 22214-3 0 00946 2 33591 098.7442 073.5309 0014238 005.6891 354.4427 14.10956519012587 HUBBLE 1 20580U 90037B 09127.87873474 .00000284 00000-0 90685-5 0 3824 2 20580 028.4690 005.3534 0003957 231.4264 128.5969 15.00480739843790 ISS 1 25544U 98067A 09127.65900583 .00007430 00000-0 58582-4 0 8091 2 25544 051.6399 154.7480 0009043 337.3153 121.8352 15.72618018599571 CO-58 1 28895U 05043F 09126.73151788 -.00000034 00000-0 23982-5 0 02969 2 28895 098.0662 018.4991 0018888 115.5105 244.8077 14.59763351187684 FALCON 1 30776U 07006E 09126.92043901 .00000267 00000-0 22360-4 0 05675 2 30776 035.4346 349.7795 0002038 304.1472 055.9053 15.03229676118882 MAST 1 31126U 07012K 09126.66167764 -.00000006 00000-0 90807-5 0 5884 2 31126 097.9917 183.3599 0095722 049.0836 311.8592 14.53493002109000 CAPE1 1 31130U 07012P 09126.79727308 .00000110 00000-0 36030-4 0 5937 2 31130 097.9942 181.7684 0103761 054.3424 306.7373 14.52054104108683 COMPASS 1 32787U 08021E 09127.85067158 .00000092 00000-0 18523-4 0 3502 2 32787 097.9449 192.0099 0016230 159.6801 200.5054 14.81590445 55471 AAUSAT2 1 32788U 08021F 09127.61929357 .00000446 00000-0 63220-4 0 3513 2 32788 097.9442 191.8327 0016253 160.7106 199.4740 14.81713520 55448 DO-64 1 32789U 08021G 09127.70793195 .00000300 00000-0 44813-4 0 3609 2 32789 097.9506 192.0586 0016125 159.1343 201.0524 14.81685170 55453 CO-66 1 32791U 08021J 09127.41609727 .00000443 00000-0 63289-4 0 3423 2 32791 097.9481 191.6126 0016420 158.7450 201.4451 14.81424684 55370 RS-30 1 32953U 08025A 09127.46195916 .00000010 00000-0 00000 0 0 2989 2 32953 082.4987 281.9385 0018114 267.5376 092.3634 12.43000755 43336 /EX
participants (1)
-
Ray Hoad